North Adams, MA

12:49 PM EDT on April 26, 2017 (GMT -0400)
Harriman And West

Weather History for KAQW - January, 2013

Change the Weather History Date:

Friday, January 11, 2013

  Actual Average Record
Temperature  
Mean Temperature 29 °F -  
Max Temperature 39 °F 28 °F 62 °F (2014)
Min Temperature 19 °F 14 °F -2 °F (2015)
Degree Days  
Heating Degree Days 36    
Moisture  
Dew Point 23 °F    
Average Humidity 71    
Maximum Humidity 87    
Minimum Humidity 44    
Precipitation  
Precipitation 0.12 in - - ()
Sea Level Pressure  
Sea Level Pressure 30.33 in    
Wind  
Wind Speed 5 mph (East)    
Max Wind Speed 14 mph    
Max Gust Speed 22 mph    
Visibility 10 miles    
Events Rain    
Averages and records for this station are not official NWS values.
T = Trace of Precipitation, MM = Missing Value Source: NWS Daily Summary

Daily Weather History Graph

Daily Weather History Graph

Search for Another Location

Airport or City:

Trip Planner

Search our weather history database for the weather conditions in past years. The results will help you decide how hot, cold, wet, or windy it might be!

Date:

Astronomy

Jan. 11, 2013 Rise Set
Actual Time 7:21 AM EST 4:40 PM EST
Civil Twilight 6:50 AM EST 5:11 PM EST
Nautical Twilight 6:15 AM EST 5:46 PM EST
Astronomical Twilight 5:41 AM EST 6:20 PM EST
Moon 6:51 AM EST (1/11) 4:56 PM EST (1/11)
Length of Visible Light 10h 21m
Length of Day
9h 18m
Waning Crescent, 0% of the Moon is Illuminated
Jan 11
Waning Crescent
Jan 11
New
Jan 18
First Quarter
Jan 26
Full
Feb 3
Last Quarter

Hourly Weather History & Observations

Time (EST) Temp. Windchill Dew Point Humidity Pressure Visibility Wind Dir Wind Speed Gust Speed Precip Events Conditions
12:52 AM 19.9 °F - 15.1 °F 81% 30.53 in 10.0 mi Calm Calm - N/A   Clear
1:52 AM 19.0 °F - 14.0 °F 81% 30.53 in 10.0 mi Calm Calm - N/A   Clear
2:52 AM 23.0 °F 17.0 °F 17.1 °F 78% 30.51 in 10.0 mi East 4.6 mph - N/A   Clear
3:52 AM 21.0 °F - 16.0 °F 81% 30.49 in 10.0 mi Calm Calm - N/A   Clear
4:52 AM 21.9 °F 15.7 °F 17.1 °F 82% 30.48 in 10.0 mi ESE 4.6 mph - N/A   Clear
5:52 AM 23.0 °F - 17.1 °F 78% 30.48 in 10.0 mi Calm Calm - N/A   Clear
6:52 AM 26.1 °F 18.4 °F 18.0 °F 71% 30.47 in 10.0 mi ESE 6.9 mph - N/A   Clear
7:52 AM 26.1 °F 18.4 °F 18.0 °F 71% 30.48 in 10.0 mi East 6.9 mph - N/A   Clear
9:52 AM 33.1 °F 26.9 °F 18.0 °F 54% 30.42 in 10.0 mi East 6.9 mph 16.1 mph N/A   Clear
10:52 AM 36.0 °F 28.5 °F 18.0 °F 48% 30.39 in 10.0 mi East 10.4 mph 17.3 mph N/A   Scattered Clouds
11:52 AM 37.0 °F 29.3 °F 17.1 °F 44% 30.37 in 10.0 mi East 11.5 mph 18.4 mph N/A   Partly Cloudy
12:52 PM 37.0 °F 28.9 °F 17.1 °F 44% 30.32 in 10.0 mi East 12.7 mph 21.9 mph N/A   Overcast
1:52 PM 37.0 °F 31.0 °F 18.0 °F 46% 30.30 in 10.0 mi East 8.1 mph - N/A   Overcast
2:52 PM 37.9 °F 31.5 °F 18.0 °F 45% 30.29 in 10.0 mi East 9.2 mph - N/A   Overcast
3:52 PM 36.0 °F 32.1 °F 25.0 °F 64% 30.29 in 4.0 mi ENE 4.6 mph - 0.04 in Rain Light Rain
4:52 PM 36.0 °F 29.0 °F 28.9 °F 76% 30.24 in 10.0 mi ENE 9.2 mph 18.4 mph 0.03 in   Overcast
5:52 PM 37.0 °F 29.8 °F 30.0 °F 76% 30.22 in 10.0 mi East 10.4 mph 16.1 mph 0.00 in   Overcast
6:11 PM 37.4 °F 30.8 °F 30.2 °F 75% 30.18 in 10.0 mi East 9.2 mph 20.7 mph 0.00 in Rain Light Rain
6:52 PM 37.0 °F 30.4 °F 32.0 °F 82% 30.20 in 7.0 mi East 9.2 mph - 0.03 in Rain Light Rain
7:45 PM 37.4 °F 29.8 °F 33.8 °F 87% 30.17 in 7.0 mi East 11.5 mph 21.9 mph 0.02 in Rain Light Rain
7:52 PM 37.9 °F 29.6 °F 32.0 °F 79% 30.19 in 9.0 mi East 13.8 mph 21.9 mph 0.02 in Rain Light Rain
8:52 PM 37.9 °F 31.5 °F 32.0 °F 79% 30.14 in 10.0 mi East 9.2 mph 20.7 mph 0.00 in   Overcast
9:52 PM 39.0 °F 33.4 °F 33.1 °F 79% 30.17 in 10.0 mi East 8.1 mph - N/A   Overcast
10:52 PM 39.0 °F 31.8 °F 34.0 °F 82% 30.17 in 10.0 mi East 11.5 mph 18.4 mph N/A   Overcast
11:52 PM 39.0 °F 32.8 °F 34.0 °F 82% 30.15 in 10.0 mi ENE 9.2 mph 16.1 mph 0.00 in Rain Light Rain